Location: Le Domaine
(47.0333°N, 76.5361°W)
Time: 05:48:52
(UTC-05:00)

Transit 2A Rocket - Pass Details

Date: 20 November 2019
Orbit: 594 x 909 km, 66.7° (Epoch: 15 December)

Event Time Altitude Azimuth Distance (km) Brightness Sun altitude
Exits shadow 05:33:38 16° 338° (NNW) 1,609 6.4 -17.3°
Maximum altitude 05:36:59 52° 52° (NE) 766 5.2 -16.7°
Drops below altitude 10° 05:41:24 10° 129° (SE) 2,022 8.2 -16.0°
Sets 05:43:48 0° 134° (SE) 2,969 9.1 -15.6°
